GW1106 Weather Reports


time (UTC)temp
C
wind
direction
speed
KPH
gust
KPH
rain 1hr
cm
rain 24hr
cm
rain mn
cm
humidity
%
barometer
mb
20260906032006 21 154 0.0 0.0 0.00 0.38 0.38 99 1015.1
20260906031502 21 167 0.0 1.6 0.00 0.38 0.38 99 1015.1
20260906030957 21 158 0.0 0.0 0.00 0.38 0.38 99 1015.0
20260906030451 21 167 0.0 1.6 0.00 0.38 0.38 99 1015.1
20260906025946 21 166 0.0 0.0 0.00 0.38 0.38 99 1015.3
20260906025445 21 181 0.0 0.0 0.00 0.38 0.38 99 1015.0
20260906024944 21 170 0.0 0.0 0.00 0.38 0.38 99 1014.9
20260906024444 21 162 0.0 0.0 0.00 0.38 0.38 99 1015.0
20260906023945 21 129 0.0 0.0 0.00 0.38 0.38 99 1014.9
20260906023441 21 128 0.0 0.0 0.00 0.38 0.38 99 1014.9
20260906022941 21 118 0.0 0.0 0.00 0.38 0.38 99 1014.8
20260906022431 22 152 0.0 0.0 0.00 0.38 0.38 99 1015.0
20260906021926 22 139 0.0 0.0 0.00 0.38 0.38 99 1014.7
20260906021420 21 152 0.0 0.0 0.00 0.38 0.38 99 1014.8
20260906020915 21 166 0.0 0.0 0.00 0.38 0.38 99 1014.7
20260906020414 22 156 0.0 0.0 0.00 0.38 0.38 99 1014.6
20260906015909 22 155 0.0 0.0 0.00 0.38 0.38 98 1014.7
20260906015408 22 150 0.0 0.0 0.00 0.38 0.38 98 1014.7
20260906014903 22 150 0.0 0.0 0.00 0.38 0.38 98 1014.7
20260906014402 22 143 0.0 0.0 0.00 0.38 0.38 98 1014.8
20260906013858 22 132 0.0 0.0 0.00 0.38 0.38 98 1014.5
20260906013355 22 131 0.0 0.0 0.00 0.38 0.38 98 1014.7
20260906012850 22 131 0.0 0.0 0.00 0.38 0.38 98 1014.8
20260906012345 22 129 1.6 3.2 0.00 0.38 0.38 98 1014.7
20260906011844 22 110 1.6 1.6 0.00 0.38 0.38 98 1014.6
20260906011339 22 128 0.0 0.0 0.00 0.38 0.38 98 1014.4
20260906010835 22 127 0.0 0.0 0.00 0.38 0.38 98 1014.5
20260906010331 22 128 0.0 0.0 0.00 0.38 0.38 97 1014.2
20260906005827 22 111 3.2 3.2 0.00 0.38 0.38 97 1014.4
20260906005326 22 116 1.6 3.2 0.00 0.38 0.38 96 1014.2
20260906004825 22 123 1.6 1.6 0.00 0.38 0.38 97 1014.3
20260906004324 22 102 3.2 3.2 0.00 0.38 0.38 96 1014.3
20260906003820 22 174 0.0 0.0 0.00 0.38 0.38 97 1014.2
20260906003315 22 175 0.0 0.0 0.00 0.38 0.38 96 1014.2
20260906002811 22 176 0.0 0.0 0.00 0.38 0.38 96 1014.2
20260906002310 23 173 0.0 0.0 0.00 0.38 0.38 95 1014.2
20260906001806 23 176 0.0 0.0 0.00 0.38 0.38 95 1014.2
20260906001301 23 181 1.6 1.6 0.00 0.38 0.38 94 1014.2
20260906000755 23 159 1.6 1.6 0.00 0.38 0.38 93 1014.1
20260906000250 23 146 0.0 1.6 0.00 0.38 0.38 94 1014.0
20260905235745 23 187 1.6 3.2 0.00 0.38 0.38 93 1013.8
20260905235244 24 167 1.6 1.6 0.00 0.38 0.38 91 1013.8
20260905234740 25 159 0.0 3.2 0.00 0.38 0.38 89 1013.6
20260905234235 25 155 0.0 0.0 0.00 0.38 0.38 85 1013.7
20260905233731 25 145 0.0 1.6 0.00 0.38 0.38 85 1013.9
20260905233230 25 157 0.0 3.2 0.00 0.38 0.38 84 1013.8
20260905232724 25 341 3.2 3.2 0.00 0.38 0.38 86 1013.5
20260905232220 26 162 0.0 1.6 0.00 0.38 0.38 81 1013.4
20260905231716 26 129 0.0 0.0 0.00 0.38 0.38 81 1013.7
20260905231211 26 133 1.6 1.6 0.00 0.38 0.38 81 1013.5
20260905230708 27 134 0.0 0.0 0.00 0.38 0.38 80 1013.6
20260905230205 27 110 0.0 0.0 0.00 0.38 0.38 79 1013.6
20260905225705 27 111 0.0 0.0 0.00 0.38 0.38 79 1013.7
20260905225200 27 132 0.0 0.0 0.00 0.38 0.38 79 1013.5
20260905224659 27 132 0.0 0.0 0.00 0.38 0.38 80 1013.5
20260905224154 27 93 0.0 0.0 0.00 0.38 0.38 81 1013.5
20260905223651 27 122 0.0 0.0 0.00 0.38 0.38 80 1013.6
20260905223147 27 144 0.0 0.0 0.00 0.38 0.38 76 1013.4
20260905222643 27 94 1.6 3.2 0.00 0.38 0.38 76 1013.5
20260905222142 27 155 0.0 3.2 0.00 0.38 0.38 79 1013.4
20260905221638 27 27 1.6 1.6 0.00 0.38 0.38 78 1013.4
20260905221135 27 88 3.2 4.8 0.00 0.38 0.38 81 1013.6
20260905220630 26 306 4.8 4.8 0.00 0.38 0.38 80 1013.5
20260905220126 27 338 4.8 4.8 0.00 0.38 0.38 80 1013.4
20260905215625 26 286 3.2 4.8 0.00 0.38 0.38 83 1013.7
20260905215121 26 270 4.8 4.8 0.00 0.38 0.38 83 1013.6
20260905214617 26 260 6.4 6.4 0.00 0.38 0.38 83 1013.7
20260905214112 27 290 4.8 6.4 0.00 0.38 0.38 80 1013.8
20260905213607 26 148 0.0 1.6 0.00 0.38 0.38 83 1013.9
20260905213103 25 264 3.2 6.4 0.00 0.38 0.38 86 1014.0
20260905212602 25 242 4.8 6.4 0.00 0.38 0.38 87 1014.1
20260905212102 25 277 6.4 6.4 0.00 0.38 0.38 86 1014.3
20260905211557 25 259 3.2 9.7 0.00 0.38 0.38 86 1014.3
20260905211053 25 223 3.2 6.4 0.00 0.38 0.38 87 1014.3
20260905210549 24 279 6.4 6.4 0.00 0.38 0.38 87 1014.6
20260905210044 24 207 4.8 4.8 0.00 0.38 0.38 88 1014.5
20260905205543 24 177 0.0 0.0 0.00 0.38 0.38 87 1014.5
20260905205042 24 199 3.2 3.2 0.00 0.38 0.38 89 1014.4
20260905204537 23 184 0.0 1.6 0.00 0.38 0.38 86 1014.7
20260905204032 23 158 0.0 1.6 0.00 0.38 0.38 88 1014.8
20260905203532 23 103 1.6 1.6 0.00 0.38 0.38 91 1015.0
20260905203027 23 334 3.2 4.8 0.00 0.38 0.38 92 1015.0
20260905202522 22 291 6.4 6.4 0.00 0.38 0.38 92 1015.0
20260905202018 22 244 1.6 4.8 0.00 0.38 0.38 94 1015.1
20260905201514 22 337 1.6 3.2 0.00 0.38 0.38 94 1014.9
20260905201013 22 126 0.0 3.2 0.00 0.38 0.38 95 1014.9
20260905200509 22 122 0.0 0.0 0.00 0.38 0.38 95 1015.0
20260905200008 22 134 0.0 0.0 0.00 0.38 0.38 96 1014.8
20260905195502 21 128 0.0 0.0 0.00 0.38 0.38 97 1014.9
20260905194958 21 126 0.0 0.0 0.00 0.38 0.38 97 1014.7
20260905194458 21 133 0.0 0.0 0.00 0.38 0.38 97 1014.6
20260905193957 21 152 0.0 0.0 0.00 0.38 0.38 97 1014.7
20260905193452 21 123 0.0 0.0 0.00 0.38 0.38 97 1014.6
20260905192947 21 106 1.6 1.6 0.00 0.38 0.38 96 1014.7
20260905192442 21 120 0.0 0.0 0.00 0.38 0.38 95 1014.9
20260905191937 21 120 0.0 3.2 0.00 0.38 0.38 94 1014.8
20260905191432 21 176 1.6 3.2 0.18 0.38 0.38 93 1014.7
20260905190931 21 220 3.2 6.4 0.18 0.38 0.38 91 1014.7
20260905190429 21 228 6.4 11.3 0.00 0.36 0.36 91 1015.1
20260905185927 21 246 8.0 11.3 0.13 0.36 0.36 90 1015.6
20260905185423 21 301 9.7 11.3 0.79 0.36 0.36 92 1015.9
20260905184921 21 150 0.0 3.2 1.80 0.30 0.30 90 1015.8
20260905184416 23 82 4.8 6.4 1.32 0.23 0.23 83 1016.0
20260905183915 27 84 6.4 11.3 0.00 0.00 0.00 66 1015.7
20260905183410 28 31 6.4 16.1 0.00 0.00 0.00 61 1015.6
20260905182905 31 49 1.6 4.8 0.00 0.00 0.00 69 1015.5
20260905182405 32 124 0.0 0.0 0.00 0.00 0.00 63 1014.9
20260905181901 32 131 0.0 0.0 0.00 0.00 0.00 61 1014.0
20260905181400 32 116 0.0 0.0 0.00 0.00 0.00 61 1013.9
20260905180859 33 136 0.0 3.2 0.00 0.00 0.00 58 1014.1
20260905180354 33 98 1.6 1.6 0.00 0.00 0.00 58 1014.2
20260905175849 34 129 0.0 1.6 0.00 0.00 0.00 56 1014.6
20260905175343 34 121 1.6 1.6 0.00 0.00 0.00 54 1014.6
20260905174838 35 56 0.0 3.2 0.00 0.00 0.00 55 1014.9
20260905174334 34 144 1.6 3.2 0.00 0.00 0.00 55 1014.8
20260905173830 33 24 3.2 12.9 0.00 0.00 0.00 57 1014.9
20260905173326 34 354 8.0 12.9 0.00 0.00 0.00 55 1015.2
20260905172826 35 60 1.6 3.2 0.00 0.00 0.00 57 1015.5
20260905172324 34 144 1.6 1.6 0.00 0.00 0.00 61 1015.3
20260905171820 33 137 0.0 3.2 0.00 0.00 0.00 59 1015.5
20260905171317 35 116 1.6 9.7 0.00 0.00 0.00 57 1015.3
20260905170807 35 219 1.6 3.2 0.00 0.00 0.00 57 1015.3
20260905170303 35 82 1.6 11.3 0.00 0.00 0.00 56 1015.6
20260905165801 34 287 4.8 4.8 0.00 0.00 0.00 58 1015.5
20260905165257 35 92 3.2 6.4 0.00 0.00 0.00 60 1015.7
20260905164752 35 158 1.6 3.2 0.00 0.00 0.00 59 1015.9
20260905164252 35 218 0.0 1.6 0.00 0.00 0.00 58 1016.0
20260905163747 35 92 1.6 3.2 0.00 0.00 0.00 60 1015.9
20260905163244 34 114 0.0 3.2 0.00 0.00 0.00 60 1016.0
20260905162739 33 140 0.0 1.6 0.00 0.00 0.00 63 1016.3
20260905162239 33 145 0.0 4.8 0.00 0.00 0.00 63 1016.2
20260905161734 33 254 3.2 6.4 0.00 0.00 0.00 61 1016.1
20260905161232 33 185 3.2 6.4 0.00 0.00 0.00 62 1016.2
20260905160731 33 100 1.6 3.2 0.00 0.00 0.00 60 1016.1
20260905160225 33 86 0.0 3.2 0.00 0.00 0.00 63 1016.2
20260905155720 32 321 6.4 9.7 0.00 0.00 0.00 67 1016.3
20260905155219 32 294 3.2 6.4 0.00 0.00 0.00 66 1016.3
20260905154713 32 239 3.2 3.2 0.00 0.00 0.00 69 1016.4
20260905154209 32 187 1.6 4.8 0.00 0.00 0.00 70 1016.4
20260905153705 31 272 4.8 6.4 0.00 0.00 0.00 69 1016.4
20260905153201 31 204 3.2 6.4 0.00 0.00 0.00 69 1016.3
20260905152655 31 243 3.2 4.8 0.00 0.00 0.00 68 1016.5
20260905152150 31 256 4.8 6.4 0.00 0.00 0.00 71 1016.2
20260905151644 31 237 3.2 6.4 0.00 0.00 0.00 71 1016.1
20260905151141 30 157 0.0 3.2 0.00 0.00 0.00 70 1016.1
20260905150635 30 246 4.8 6.4 0.00 0.00 0.00 71 1016.2
20260905150133 30 240 3.2 9.7 0.00 0.00 0.00 75 1016.2
20260905145631 30 234 1.6 6.4 0.00 0.00 0.00 72 1016.3
20260905145131 30 277 6.4 9.7 0.00 0.00 0.00 72 1016.3
20260905144626 30 205 4.8 6.4 0.00 0.00 0.00 73 1016.4
20260905144120 30 161 1.6 4.8 0.00 0.00 0.00 72 1016.4
20260905143620 30 232 3.2 4.8 0.00 0.00 0.00 75 1016.4
20260905143114 30 249 4.8 9.7 0.00 0.00 0.00 74 1016.3
20260905142614 30 227 1.6 6.4 0.00 0.00 0.00 76 1016.4
20260905142113 30 149 1.6 4.8 0.00 0.00 0.00 75 1016.4
20260905141613 30 140 0.0 0.0 0.00 0.00 0.00 74 1016.3
20260905141109 29 141 0.0 4.8 0.00 0.00 0.00 78 1016.3
20260905140605 30 141 3.2 4.8 0.00 0.00 0.00 77 1016.5
20260905140103 28 139 0.0 3.2 0.00 0.00 0.00 78 1016.4
20260905135559 29 139 0.0 0.0 0.00 0.00 0.00 77 1016.5
20260905135054 28 140 1.6 3.2 0.00 0.00 0.00 79 1016.6
20260905134549 28 137 0.0 0.0 0.00 0.00 0.00 79 1016.5
20260905134047 28 138 0.0 0.0 0.00 0.00 0.00 80 1016.5
20260905133543 30 136 0.0 1.6 0.00 0.00 0.00 75 1016.5
20260905133042 29 134 0.0 0.0 0.00 0.00 0.00 77 1016.4
20260905132542 28 134 0.0 0.0 0.00 0.00 0.00 79 1016.7
20260905132037 28 134 0.0 1.6 0.00 0.00 0.00 79 1016.6
20260905131532 28 134 0.0 1.6 0.00 0.00 0.00 80 1016.6
20260905131028 28 134 0.0 0.0 0.00 0.00 0.00 83 1016.6
20260905130526 27 132 0.0 0.0 0.00 0.00 0.00 84 1016.7
20260905130022 27 135 0.0 0.0 0.00 0.00 0.00 85 1016.6
20260905125521 26 132 0.0 0.0 0.00 0.00 0.00 86 1016.6
20260905125017 25 135 0.0 0.0 0.00 0.00 0.00 89 1016.9
20260905124513 24 134 1.6 1.6 0.00 0.00 0.00 98 1016.6
20260905124010 23 133 0.0 1.6 0.00 0.00 0.00 99 1016.6
20260905123505 23 132 0.0 1.6 0.00 0.00 0.00 99 1016.5
20260905123001 23 133 0.0 1.6 0.00 0.00 0.00 99 1016.5
20260905122500 23 135 0.0 0.0 0.00 0.00 0.00 99 1016.4
20260905121955 22 134 0.0 0.0 0.00 0.00 0.00 99 1016.4
20260905121451 22 131 0.0 0.0 0.00 0.00 0.00 99 1016.4
20260905120950 22 135 0.0 0.0 0.00 0.00 0.00 99 1016.4
20260905120439 22 135 0.0 0.0 0.00 0.00 0.00 99 1016.4
20260905115934 21 135 0.0 0.0 0.00 0.00 0.00 99 1016.3
20260905115433 21 135 0.0 0.0 0.00 0.00 0.00 99 1016.3
20260905114928 21 135 0.0 0.0 0.00 0.00 0.00 99 1016.2
20260905114422 21 135 0.0 0.0 0.00 0.00 0.00 99 1016.1
20260905113921 21 132 0.0 0.0 0.00 0.00 0.00 99 1016.3
20260905113416 21 130 0.0 0.0 0.00 0.00 0.00 99 1016.1
20260905112912 21 137 0.0 0.0 0.00 0.00 0.00 99 1016.2
20260905112407 21 136 0.0 0.0 0.00 0.00 0.00 99 1016.1
20260905111902 21 135 0.0 0.0 0.00 0.00 0.00 99 1016.0
20260905111402 21 132 0.0 0.0 0.00 0.00 0.00 99 1015.9
20260905110856 21 129 0.0 0.0 0.00 0.00 0.00 99 1015.8
20260905110355 21 136 0.0 0.0 0.00 0.00 0.00 99 1015.8
20260905105851 21 137 0.0 0.0 0.00 0.00 0.00 99 1015.6
20260905105351 22 137 0.0 0.0 0.00 0.00 0.00 99 1015.7
20260905104850 22 137 0.0 0.0 0.00 0.00 0.00 99 1015.5
20260905104347 22 136 0.0 0.0 0.00 0.00 0.00 99 1015.6
20260905103846 22 136 0.0 0.0 0.00 0.00 0.00 99 1015.6
20260905103337 21 129 1.6 1.6 0.00 0.00 0.00 99 1015.2
20260905102832 22 127 0.0 0.0 0.00 0.00 0.00 99 1015.1
20260905102329 22 142 0.0 0.0 0.00 0.00 0.00 99 1015.0
20260905101828 22 141 0.0 0.0 0.00 0.00 0.00 99 1015.0
20260905101326 22 142 0.0 0.0 0.00 0.00 0.00 99 1015.1
20260905100821 22 141 0.0 0.0 0.00 0.00 0.00 99 1015.1
20260905100317 22 141 0.0 0.0 0.00 0.00 0.00 99 1015.0
20260905095816 22 140 0.0 0.0 0.00 0.00 0.00 99 1014.9
20260905095310 22 140 0.0 0.0 0.00 0.00 0.00 99 1014.9
20260905094805 22 137 0.0 0.0 0.00 0.00 0.00 99 1015.0
20260905094301 22 137 0.0 0.0 0.00 0.00 0.00 99 1015.0
20260905093800 22 131 0.0 0.0 0.00 0.00 0.00 99 1015.1
20260905093255 22 142 0.0 0.0 0.00 0.00 0.00 99 1015.0
20260905092751 22 142 0.0 0.0 0.00 0.00 0.00 99 1015.2
20260905092246 22 140 0.0 0.0 0.00 0.00 0.00 99 1015.1
20260905091741 22 141 0.0 0.0 0.00 0.00 0.00 99 1015.0
20260905091235 22 141 0.0 0.0 0.00 0.00 0.00 99 1015.0
20260905090734 22 141 0.0 0.0 0.00 0.00 0.00 99 1015.2
20260905090231 22 141 0.0 0.0 0.00 0.00 0.00 99 1015.1
20260905085729 22 141 0.0 0.0 0.00 0.00 0.00 99 1014.9
20260905085224 22 141 0.0 0.0 0.00 0.00 0.00 99 1015.2
20260905084718 22 140 0.0 0.0 0.00 0.00 0.00 99 1015.3
20260905084218 22 140 0.0 0.0 0.00 0.00 0.00 99 1015.6
20260905083713 22 140 0.0 0.0 0.00 0.00 0.00 99 1015.5
20260905083209 22 139 0.0 0.0 0.00 0.00 0.00 99 1015.6
20260905082705 22 138 0.0 0.0 0.00 0.00 0.00 99 1015.6
20260905082201 22 138 0.0 0.0 0.00 0.00 0.00 99 1015.6
20260905081700 22 137 0.0 0.0 0.00 0.00 0.00 99 1015.7
20260905081155 22 137 0.0 0.0 0.00 0.00 0.00 99 1015.7
20260905080650 22 137 0.0 0.0 0.00 0.00 0.00 99 1015.7
20260905080149 22 139 0.0 0.0 0.00 0.00 0.00 99 1015.8
20260905075649 22 139 0.0 0.0 0.00 0.00 0.00 99 1015.8
20260905075148 22 140 0.0 0.0 0.00 0.00 0.00 99 1015.9
20260905074647 22 140 0.0 0.0 0.00 0.00 0.00 99 1015.8
20260905074143 22 140 0.0 0.0 0.00 0.00 0.00 99 1015.9
20260905073639 22 140 0.0 0.0 0.00 0.00 0.00 99 1015.7
20260905073134 22 140 0.0 0.0 0.00 0.00 0.00 99 1016.0
20260905072633 22 140 0.0 0.0 0.00 0.00 0.00 99 1016.0
20260905072129 22 138 0.0 0.0 0.00 0.00 0.00 99 1015.9
20260905071625 22 134 0.0 0.0 0.00 0.00 0.00 99 1015.8
20260905071120 23 134 0.0 0.0 0.00 0.00 0.00 99 1016.0
20260905070616 22 134 0.0 0.0 0.00 0.00 0.00 99 1016.2
20260905070112 22 134 0.0 0.0 0.00 0.00 0.00 99 1016.1
20260905065609 22 134 0.0 0.0 0.00 0.00 0.00 99 1016.3
20260905065104 22 134 0.0 0.0 0.00 0.00 0.00 99 1016.1
20260905064559 22 134 0.0 0.0 0.00 0.00 0.00 99 1016.2
20260905064054 22 133 0.0 0.0 0.00 0.00 0.00 99 1016.3
20260905063553 22 129 0.0 0.0 0.00 0.00 0.00 99 1016.5
20260905063049 22 135 0.0 0.0 0.00 0.00 0.00 99 1016.5
20260905062544 23 134 0.0 0.0 0.00 0.00 0.00 99 1016.6
20260905062039 23 134 0.0 0.0 0.00 0.00 0.00 99 1016.6
20260905061534 23 134 0.0 0.0 0.00 0.00 0.00 99 1016.7
20260905061033 23 132 0.0 0.0 0.00 0.00 0.00 99 1016.7
20260905060529 23 129 0.0 0.0 0.00 0.00 0.00 99 1016.9
20260905060025 23 136 0.0 0.0 0.00 0.00 0.00 99 1016.8
20260905055524 23 134 0.0 0.0 0.00 0.00 0.00 99 1016.8
20260905055019 23 135 0.0 0.0 0.00 0.00 0.00 99 1016.9
20260905054514 23 139 0.0 0.0 0.00 0.00 0.00 99 1016.9
20260905054010 23 140 0.0 0.0 0.00 0.00 0.00 99 1016.7
20260905053503 23 135 0.0 0.0 0.00 0.00 0.00 99 1016.9
20260905053000 23 136 0.0 0.0 0.00 0.00 0.00 99 1016.9
20260905052459 23 132 0.0 0.0 0.00 0.00 0.00 98 1016.9
20260905051958 23 129 1.6 1.6 0.00 0.00 0.00 98 1016.8
20260905051454 23 133 0.0 0.0 0.00 0.00 0.00 98 1016.9
20260905050951 23 136 0.0 0.0 0.00 0.00 0.00 98 1016.8
20260905050447 23 142 0.0 3.2 0.00 0.00 0.00 98 1016.7
20260905045943 23 136 0.0 0.0 0.00 0.00 0.00 98 1017.0
20260905045437 23 133 0.0 0.0 0.00 0.00 0.00 98 1017.0
20260905044932 23 133 0.0 0.0 0.00 0.00 0.00 98 1017.2
20260905044427 23 136 0.0 0.0 0.00 0.00 0.00 98 1016.9
20260905043926 23 135 0.0 0.0 0.00 0.00 0.00 98 1017.1
20260905043421 23 136 0.0 0.0 0.00 0.00 0.00 98 1017.0
20260905042921 23 136 0.0 0.0 0.00 0.00 0.00 98 1017.1
20260905042415 23 136 0.0 0.0 0.00 0.00 0.00 98 1017.2
20260905041910 23 136 0.0 0.0 0.00 0.00 0.00 98 1017.0
20260905041407 23 126 0.0 0.0 0.00 0.00 0.00 98 1017.0
20260905040901 23 134 0.0 0.0 0.00 0.00 0.00 98 1017.0
20260905040400 23 132 0.0 0.0 0.00 0.00 0.00 98 1017.0
20260905035859 23 133 0.0 0.0 0.00 0.00 0.00 97 1016.8
20260905035355 23 135 0.0 0.0 0.00 0.00 0.00 97 1016.7
20260905034852 24 132 0.0 0.0 0.00 0.00 0.00 97 1016.5
20260905034347 24 118 0.0 0.0 0.00 0.00 0.00 97 1016.7
20260905033845 24 110 0.0 0.0 0.00 0.00 0.00 97 1016.8
20260905033341 24 161 0.0 0.0 0.00 0.00 0.00 96 1016.8
20260905032840 25 162 0.0 0.0 0.00 0.00 0.00 96 1016.7
20260905032336 25 161 0.0 0.0 0.00 0.00 0.00 96 1016.8